TimeCST,TemperatureF,Dew PointF,Humidity,Sea Level PressureIn,VisibilityMPH,Wind Direction,Wind SpeedMPH,Gust SpeedMPH,PrecipitationIn,Events,Conditions,WindDirDegrees,DateUTC
12:52 AM,1.9,-0.9,88,30.51,10.0,Calm,Calm,-,N/A,,Clear,0,2013-02-01 06:52:00
1:52 AM,1.0,-2.0,87,30.48,10.0,Calm,Calm,-,N/A,,Clear,0,2013-02-01 07:52:00
2:52 AM,3.0,-0.9,84,30.48,10.0,Calm,Calm,-,N/A,,Clear,0,2013-02-01 08:52:00
3:52 AM,1.9,-2.9,80,30.47,10.0,Calm,Calm,-,N/A,,Clear,0,2013-02-01 09:52:00
4:52 AM,1.0,-2.9,83,30.48,10.0,WSW,3.5,-,N/A,,Clear,240,2013-02-01 10:52:00
5:52 AM,1.0,-4.0,79,30.48,10.0,Calm,Calm,-,N/A,,Clear,0,2013-02-01 11:52:00
6:52 AM,1.9,-2.0,83,30.45,10.0,Calm,Calm,-,N/A,,Clear,0,2013-02-01 12:52:00
7:52 AM,1.9,-2.0,83,30.47,10.0,Calm,Calm,-,N/A,,Clear,0,2013-02-01 13:52:00
8:52 AM,7.0,1.9,80,30.46,10.0,Calm,Calm,-,N/A,,Scattered Clouds,0,2013-02-01 14:52:00
9:52 AM,12.0,7.0,80,30.43,10.0,Calm,Calm,-,N/A,,Mostly Cloudy,0,2013-02-01 15:52:00
10:52 AM,21.9,10.9,63,30.40,10.0,SSW,13.8,-,0.00,,Partly Cloudy,210,2013-02-01 16:52:00
11:52 AM,24.1,12.9,62,30.38,10.0,SW,18.4,-,N/A,,Partly Cloudy,220,2013-02-01 17:52:00
12:52 PM,26.1,12.9,58,30.34,10.0,SW,17.3,-,N/A,,Clear,220,2013-02-01 18:52:00
1:52 PM,27.0,15.1,61,30.30,10.0,SSW,16.1,-,N/A,,Mostly Cloudy,210,2013-02-01 19:52:00
2:52 PM,28.9,15.1,56,30.27,10.0,SW,11.5,-,N/A,,Mostly Cloudy,220,2013-02-01 20:52:00
3:52 PM,28.9,15.1,56,30.25,10.0,South,9.2,-,N/A,,Clear,190,2013-02-01 21:52:00
4:52 PM,28.0,15.1,58,30.23,10.0,South,4.6,-,N/A,,Clear,190,2013-02-01 22:52:00
5:52 PM,27.0,15.1,61,30.19,10.0,Calm,Calm,-,N/A,,Clear,0,2013-02-01 23:52:00
6:52 PM,24.8,14.0,64,30.14,10.0,Calm,Calm,-,N/A,,Clear,0,2013-02-02 00:52:00
7:52 PM,24.8,15.8,69,30.14,10.0,SW,5.8,-,N/A,,Clear,220,2013-02-02 01:52:00
8:52 PM,26.1,15.1,63,30.19,10.0,SW,5.8,-,N/A,,Clear,220,2013-02-02 02:52:00
9:52 PM,27.0,16.0,63,30.18,10.0,SW,6.9,-,N/A,,Clear,220,2013-02-02 03:52:00
10:52 PM,28.0,17.1,63,30.16,10.0,SW,10.4,-,N/A,,Clear,220,2013-02-02 04:52:00
11:52 PM,28.9,16.0,58,30.16,10.0,SW,6.9,-,N/A,,Mostly Cloudy,230,2013-02-02 05:52:00